Location: Unspecified
(51.5147°N, 7.4673°E)
Time: 09:01:59
(UTC+01:00)

Vanguard 1 Rocket - Pass Details

Date: 23 February 2026
Orbit: 653 x 4214 km, 34.3° (Epoch: 12 March)

Event Time Altitude Azimuth Distance (km) Brightness Sun altitude
Rises 16:30:31 0° 260° (W) 4,923 12.6 11.8°
Reaches altitude 10° 16:33:37 10° 250° (WSW) 4,329 13.1 11.4°
Maximum altitude 16:44:29 34° 192° (SSW) 3,952 11.3 10.0°
Drops below altitude 10° 17:02:10 10° 138° (SE) 6,990 11.8 7.5°
Sets 17:09:08 0° 131° (SE) 8,312 12.0 6.6°
